Location: Unspecified
(0.0000°N, 0.0000°E)
Time: 06:11:53
(UTC+00:00)

Vanguard 1 - Pass Details

Date: 20 November 2019
Orbit: 650 x 3833 km, 34.2° (Epoch: 08 July)

Event Time Altitude Azimuth Distance (km) Brightness Sun altitude
Rises 22:20:25 0° 242° (WSW) 5,010 14.1 -61.2°
Reaches altitude 10° 22:25:18 10° 222° (SW) 4,593 13.8 -62.1°
Maximum altitude 22:33:07 17° 186° (S) 4,849 13.7 -63.4°
Drops below altitude 10° 22:43:30 10° 152° (SSE) 6,257 14.2 -65.0°
Sets 22:52:43 0° 134° (SE) 7,765 14.7 -66.3°
